Weather History for KMYP - October, 2012

Change the Weather History Date:

Friday, October 5, 2012

  Actual Average (KGUC) Record (KGUC)
Temperature  
Mean Temperature 37 °F -  
Max Temperature 42 °F 61 °F 73 °F (1997)
Min Temperature 32 °F 27 °F 19 °F (1998)
Degree Days  
Heating Degree Days 28    
Moisture  
Dew Point 19 °F    
Average Humidity 57    
Maximum Humidity 100    
Minimum Humidity 27    
Precipitation  
Precipitation 0.00 in - - ()
Sea Level Pressure  
Sea Level Pressure 30.39 in    
Wind  
Wind Speed 32 mph (WSW)    
Max Wind Speed 50 mph    
Max Gust Speed 62 mph    
Averages and records for this station are not official NWS values.
T = Trace of Precipitation, MM = Missing Value Source: NWS Daily Summary

Daily Weather History Graph

Daily Weather History Graph

Search for Another Location

Airport or City:

Trip Planner

Search our weather history database for the weather conditions in past years. The results will help you decide how hot, cold, wet, or windy it might be!

Date:

Astronomy

Oct. 05, 2012 Rise Set
Actual Time 7:05 AM MDT 6:41 PM MDT
Civil Twilight 6:38 AM MDT 7:07 PM MDT
Nautical Twilight 6:08 AM MDT 7:38 PM MDT
Astronomical Twilight 5:37 AM MDT 8:08 PM MDT
Moon 10:10 PM MDT (10/5) 12:11 PM MDT (10/5)
Length of Visible Light 12h 28m
Length of Day
11h 35m
Waning Gibbous, 73% of the Moon is Illuminated
Oct 5
Waning Gibbous
Oct 8
Last Quarter
Oct 15
New
Oct 21
First Quarter
Oct 29
Full

Hourly Weather History & Observations

Time (MDT) Temp. Windchill Dew Point Humidity Pressure Visibility Wind Dir Wind Speed Gust Speed Precip Events Conditions
12:03 AM 33.8 °F 19.4 °F 30.2 °F 87% 30.46 in - West 33.4 mph 40.3 mph N/A   Unknown
12:23 AM 32.0 °F 17.2 °F 32.0 °F 100% 30.46 in - SW 32.2 mph 41.4 mph N/A   Unknown
12:43 AM 32.0 °F - 32.0 °F 100% 30.45 in - North - - N/A Thunderstorm Overcast
1:02 AM 32.0 °F 18.6 °F 32.0 °F 100% 30.44 in - WSW 25.3 mph 34.5 mph N/A   Overcast
1:24 AM 32.0 °F 19.8 °F 32.0 °F 100% 30.43 in - WSW 20.7 mph 29.9 mph N/A   Overcast
1:44 AM 32.0 °F 18.1 °F 32.0 °F 100% 30.43 in - West 27.6 mph 33.4 mph N/A   Overcast
2:04 AM 32.0 °F 18.9 °F 32.0 °F 100% 30.43 in - West 24.2 mph 29.9 mph N/A   Overcast
2:23 AM 32.0 °F 18.1 °F 32.0 °F 100% 30.42 in - West 27.6 mph 33.4 mph N/A   Overcast
2:45 AM 32.0 °F 18.4 °F 32.0 °F 100% 30.40 in - SW 26.5 mph 34.5 mph N/A   Overcast
3:04 AM 32.0 °F 17.0 °F 32.0 °F 100% 30.38 in - SW 33.4 mph 43.7 mph N/A   Unknown
3:24 AM 32.0 °F 17.2 °F 30.2 °F 93% 30.36 in - SW 32.2 mph 42.6 mph N/A Thunderstorm Thunderstorm
3:43 AM 32.0 °F 16.7 °F 30.2 °F 93% 30.37 in - WSW 34.5 mph 43.7 mph N/A   Overcast
4:03 AM 32.0 °F 17.6 °F 30.2 °F 93% 30.37 in - WSW 29.9 mph 39.1 mph N/A   Overcast
4:24 AM 32.0 °F 18.9 °F 30.2 °F 93% 30.37 in - WSW 24.2 mph 33.4 mph N/A   Overcast
4:44 AM 32.0 °F 17.4 °F 28.4 °F 87% 30.36 in - WSW 31.1 mph 39.1 mph N/A   Overcast
5:03 AM 33.8 °F 20.1 °F 28.4 °F 81% 30.36 in - WSW 29.9 mph 38.0 mph N/A   Overcast
5:22 AM 33.8 °F 19.6 °F 26.6 °F 75% 30.36 in - WSW 32.2 mph 52.9 mph N/A   Mostly Cloudy
5:43 AM 32.0 °F 16.3 °F 26.6 °F 80% 30.36 in - WSW 36.8 mph 48.3 mph N/A   Scattered Clouds
6:03 AM 33.8 °F 17.1 °F 26.6 °F 75% 30.36 in - West 48.3 mph 56.4 mph N/A   Overcast
6:23 AM 32.0 °F 15.6 °F 26.6 °F 80% 30.38 in - West 41.4 mph 51.8 mph N/A   Overcast
6:43 AM 32.0 °F - 26.6 °F 80% 30.39 in - North - - N/A   Overcast
7:02 AM 32.0 °F 16.7 °F 24.8 °F 75% 30.39 in - WSW 34.5 mph - N/A   Overcast
7:23 AM 32.0 °F 18.1 °F 24.8 °F 75% 30.39 in - SW 27.6 mph 36.8 mph N/A   Overcast
7:42 AM 32.0 °F 17.4 °F 23.0 °F 69% 30.40 in - WSW 31.1 mph 38.0 mph N/A   Overcast
8:01 AM 32.0 °F 17.2 °F 24.8 °F 75% 30.41 in - WSW 32.2 mph 38.0 mph N/A   Overcast
8:23 AM 32.0 °F 18.1 °F 23.0 °F 69% 30.41 in - West 27.6 mph 39.1 mph N/A   Overcast
8:43 AM 32.0 °F 17.9 °F 23.0 °F 69% 30.41 in - West 28.8 mph 39.1 mph N/A   Mostly Cloudy
9:02 AM 33.8 °F 21.6 °F 23.0 °F 65% 30.42 in - West 23.0 mph 34.5 mph N/A   Scattered Clouds
9:23 AM 33.8 °F 19.9 °F 21.2 °F 60% 30.42 in - West 31.1 mph 46.0 mph N/A   Mostly Cloudy
9:41 AM 33.8 °F 20.5 °F 21.2 °F 60% 30.42 in - West 27.6 mph 48.3 mph N/A   Mostly Cloudy
10:21 AM 35.6 °F 20.1 °F 19.4 °F 52% 30.41 in - West 44.9 mph 56.4 mph N/A   Scattered Clouds
10:42 AM 35.6 °F 21.7 °F 17.6 °F 48% 30.42 in - WSW 34.5 mph 49.5 mph N/A   Scattered Clouds
11:02 AM 35.6 °F 21.3 °F 17.6 °F 48% 30.42 in - West 36.8 mph 61.0 mph N/A   Scattered Clouds
11:22 AM 35.6 °F 21.0 °F 17.6 °F 48% 30.42 in - West 39.1 mph 62.1 mph N/A   Scattered Clouds
11:42 AM 37.4 °F 22.8 °F 15.8 °F 41% 30.41 in - West 43.7 mph 51.8 mph N/A   Scattered Clouds
12:23 PM 37.4 °F 22.2 °F 14.0 °F 38% 30.41 in - West 48.3 mph 58.7 mph N/A   Scattered Clouds
12:43 PM 37.4 °F 23.3 °F 14.0 °F 38% 30.41 in - West 40.3 mph 52.9 mph N/A   Scattered Clouds
1:02 PM 41.0 °F 27.3 °F 12.2 °F 31% 30.40 in - West 48.3 mph 56.4 mph N/A   Scattered Clouds
1:22 PM 41.0 °F 28.5 °F 12.2 °F 31% 30.40 in - West 39.1 mph 56.4 mph N/A   Scattered Clouds
1:44 PM 42.8 °F 31.6 °F 14.0 °F 31% 30.39 in - West 34.5 mph 50.6 mph N/A   Mostly Cloudy
2:03 PM 42.8 °F 29.9 °F 12.2 °F 29% 30.38 in - West 48.3 mph 59.8 mph N/A   Scattered Clouds
2:24 PM 42.8 °F 32.1 °F 12.2 °F 29% 30.38 in - WSW 31.1 mph 55.2 mph N/A   Scattered Clouds
2:43 PM 42.8 °F 31.6 °F 12.2 °F 29% 30.37 in - WSW 34.5 mph 62.1 mph N/A   Scattered Clouds
3:02 PM 42.8 °F 30.1 °F 10.4 °F 27% 30.36 in - West 46.0 mph 56.4 mph N/A   Scattered Clouds
3:24 PM 42.8 °F 30.3 °F 12.2 °F 29% 30.36 in - West 44.9 mph 56.4 mph N/A   Clear
3:44 PM 42.8 °F 29.8 °F 10.4 °F 27% 30.37 in - West 49.5 mph 59.8 mph N/A   Clear
4:04 PM 42.8 °F 30.4 °F 12.2 °F 29% 30.36 in - West 43.7 mph 56.4 mph N/A   Clear
4:24 PM 42.8 °F 30.5 °F 12.2 °F 29% 30.36 in - West 42.6 mph 61.0 mph N/A   Clear
4:45 PM 42.8 °F 31.0 °F 12.2 °F 29% 30.36 in - West 39.1 mph 62.1 mph N/A   Clear
5:05 PM 41.0 °F 29.1 °F 12.2 °F 31% 30.37 in - SW 34.5 mph 62.1 mph N/A   Clear
5:24 PM 41.0 °F 29.3 °F 10.4 °F 29% 30.37 in - WSW 33.4 mph 51.8 mph N/A   Clear
5:44 PM 41.0 °F 28.3 °F 10.4 °F 29% 30.37 in - West 40.3 mph 54.1 mph N/A   Clear
6:03 PM 39.2 °F 26.5 °F 10.4 °F 31% 30.37 in - West 35.7 mph 52.9 mph N/A   Clear
6:24 PM 37.4 °F 24.0 °F 10.4 °F 33% 30.38 in - West 35.7 mph 48.3 mph N/A   Clear
6:44 PM 35.6 °F 23.0 °F 10.4 °F 35% 30.39 in - West 27.6 mph 41.4 mph N/A   Clear
7:04 PM 35.6 °F 21.9 °F 10.4 °F 35% 30.39 in - West 33.4 mph 43.7 mph N/A   Clear
7:24 PM 35.6 °F 23.2 °F 10.4 °F 35% 30.39 in - West 26.5 mph 38.0 mph N/A   Mostly Cloudy
7:44 PM 35.6 °F 23.4 °F 10.4 °F 35% 30.39 in - West 25.3 mph 33.4 mph N/A   Overcast
8:04 PM 35.6 °F 23.0 °F 10.4 °F 35% 30.39 in - WSW 27.6 mph 36.8 mph N/A   Overcast
8:24 PM 35.6 °F 23.4 °F 10.4 °F 35% 30.40 in - West 25.3 mph 39.1 mph N/A   Overcast
8:45 PM 33.8 °F 20.8 °F 8.6 °F 35% 30.39 in - WSW 26.5 mph 36.8 mph N/A   Mostly Cloudy
9:24 PM 32.0 °F 19.5 °F 8.6 °F 38% 30.38 in - SW 21.9 mph 29.9 mph N/A   Scattered Clouds
9:43 PM 32.0 °F 18.9 °F 8.6 °F 38% 30.38 in - SW 24.2 mph 27.6 mph N/A   Scattered Clouds
10:04 PM 32.0 °F 18.6 °F 8.6 °F 38% 30.38 in - WSW 25.3 mph 32.2 mph N/A   Clear
10:24 PM 32.0 °F 18.6 °F 8.6 °F 38% 30.37 in - SW 25.3 mph 31.1 mph N/A   Scattered Clouds
10:44 PM 32.0 °F 18.4 °F 10.4 °F 41% 30.37 in - SW 26.5 mph 33.4 mph N/A   Overcast
11:03 PM 32.0 °F 18.1 °F 10.4 °F 41% 30.36 in - WSW 27.6 mph 35.7 mph N/A   Overcast
11:23 PM 32.0 °F 17.9 °F 10.4 °F 41% 30.36 in - WSW 28.8 mph 36.8 mph N/A   Overcast
11:44 PM 32.0 °F 17.6 °F 10.4 °F 41% 30.35 in - SW 29.9 mph 38.0 mph N/A   Overcast